LUR-1 (60506 NORAD) Tracking and Keplerian Element Data

This shows tracking and keplerian element data for the satellite.

Feedback or suggestion? Click here.




ElementValue
Catalog60506
NameLUR-1
Epoch Orbit864
Epoch Day286.76124849
Epoch Year2024
RAAN1.4348
Inclination97.4366
Eccentricity0.0003822
Argument of Perigee311.8287
Mean Anonmoly48.2621
Mean Motion15.19339929
Decay Rate0.0001098
L11 60506U 24149AQ 24286.76124849 .00010980 00000+0 52236-3 0 9998
L22 60506 97.4366 1.4348 0003822 311.8287 48.2621 15.19339929 8641



Live tracking and technical data element details for LUR-1 (NORAD 60506). LUR-1 can be tracked NOW for your location showing map with azimuth and elevation plus other details from your city location.







IsCatalogInMostPopularTable: catalog: 60506, numindb: 5
Update: records affected: 1



GetName: 60506 LUR-1

Hit Count: updated at: Fri, 06 Dec 2024 10:49:43 GMT